When you browse on this site, cookies collect data to enhance your experience and personalize the content and advertising you see.
Visit our Privacy Policy to learn more. By continuing to use the site, you agree to this use of cookies and data.
  • In United Kingdom
  • List of Countries
  • For 7 days
  • Water Temperature
  • Satellite Maps
  • Weather Map
  • Weather Widgets
  • user-avatar
    Login

    Hourly Weather Kuldiga

    Today, 20 July, Saturday

    Time Temperature Precipitation Wind Pressure Humidity
    00:00 +11°C° 0 mm 0 mps 758 mmHg 93%
    01:00 +11°C° 0 mm 0 mps 758 mmHg 92%
    02:00 +11°C° 0 mm 0 mps 758 mmHg 92%
    03:00 +11°C° 0 mm 0 mps 758 mmHg 91%
    04:00 +11°C° 0 mm 0 mps 759 mmHg 90%
    05:00 +14°C° 0 mm 0 mps 759 mmHg 81%
    06:00 +16°C° 0 mm 0 mps 759 mmHg 72%
    07:00 +18°C° 0 mm 0 mps 759 mmHg 64%
    08:00 +22°C° 0 mm 1 mps 759 mmHg 57%
    09:00 +24°C° 0 mm 1 mps 759 mmHg 50%
    10:00 +26°C° 0 mm 1 mps 760 mmHg 43%
    11:00 +26°C° 0 mm 1 mps 760 mmHg 41%
    12:00 +27°C° 0 mm 1 mps 760 mmHg 40%
    13:00 +27°C° 0 mm 1 mps 760 mmHg 38%
    14:00 +27°C° 0 mm 1 mps 760 mmHg 41%
    15:00 +26°C° 0 mm 2 mps 760 mmHg 43%
    16:00 +26°C° 0 mm 2 mps 760 mmHg 45%
    17:00 +24°C° 0 mm 2 mps 759 mmHg 54%
    18:00 +21°C° 0 mm 2 mps 759 mmHg 64%
    19:00 +19°C° 0 mm 2 mps 759 mmHg 73%
    20:00 +18°C° 0 mm 2 mps 759 mmHg 75%
    21:00 +16°C° 0 mm 2 mps 759 mmHg 77%
    22:00 +15°C° 0 mm 2 mps 760 mmHg 79%
    23:00 +15°C° 0 mm 2 mps 760 mmHg 79%

    Tomorrow, 21 July, Sunday

    Time Temperature Precipitation Wind Pressure Humidity
    00:00 +14°C° 0 mm 2 mps 759 mmHg 78%
    01:00 +14°C° 0 mm 2 mps 759 mmHg 77%
    02:00 +14°C° 0 mm 2 mps 759 mmHg 77%
    03:00 +14°C° 0 mm 2 mps 759 mmHg 77%
    04:00 +14°C° 0 mm 2 mps 759 mmHg 77%
    05:00 +16°C° 0 mm 2 mps 759 mmHg 72%
    06:00 +18°C° 0 mm 2 mps 759 mmHg 67%
    07:00 +20°C° 0 mm 3 mps 759 mmHg 62%
    08:00 +21°C° 0 mm 3 mps 759 mmHg 57%
    09:00 +24°C° 0 mm 3 mps 759 mmHg 53%
    10:00 +26°C° 0 mm 3 mps 759 mmHg 48%
    11:00 +26°C° 0 mm 3 mps 759 mmHg 47%
    12:00 +27°C° 0 mm 3 mps 758 mmHg 46%
    13:00 +27°C° 0 mm 3 mps 758 mmHg 45%
    14:00 +27°C° 0.4 mm 3 mps 758 mmHg 54%
    15:00 +26°C° 0.4 mm 2 mps 758 mmHg 64%
    16:00 +25°C° 0.4 mm 2 mps 758 mmHg 73%
    17:00 +23°C° 0.7 mm 2 mps 757 mmHg 80%
    18:00 +21°C° 0.7 mm 2 mps 757 mmHg 87%
    19:00 +20°C° 0.7 mm 1 mps 757 mmHg 93%
    20:00 +20°C° 0.2 mm 1 mps 757 mmHg 94%
    21:00 +19°C° 0.2 mm 1 mps 757 mmHg 95%
    22:00 +17°C° 0.2 mm 0 mps 757 mmHg 96%
    23:00 +16°C° 0 mm 0 mps 757 mmHg 96%

    Day after tomorrow, 22 July, Monday

    Time Temperature Precipitation Wind Pressure Humidity
    00:00 +18°C° 0 mm 1 mps 757 mmHg 97%
    01:00 +16°C° 0 mm 1 mps 757 mmHg 97%
    02:00 +16°C° 0 mm 1 mps 757 mmHg 97%
    03:00 +16°C° 0 mm 1 mps 757 mmHg 98%
    04:00 +16°C° 0 mm 1 mps 757 mmHg 98%
    05:00 +18°C° 0.1 mm 1 mps 757 mmHg 96%
    06:00 +19°C° 0.1 mm 1 mps 757 mmHg 95%
    07:00 +20°C° 0.1 mm 1 mps 757 mmHg 93%
    08:00 +19°C° 0.5 mm 2 mps 757 mmHg 92%
    09:00 +20°C° 0.5 mm 3 mps 758 mmHg 91%
    10:00 +20°C° 0.5 mm 4 mps 758 mmHg 90%
    11:00 +20°C° 0.2 mm 4 mps 758 mmHg 85%
    12:00 +20°C° 0.2 mm 4 mps 759 mmHg 81%
    13:00 +20°C° 0.2 mm 4 mps 759 mmHg 77%
    14:00 +19°C° 0 mm 4 mps 759 mmHg 76%
    15:00 +19°C° 0 mm 3 mps 759 mmHg 76%
    16:00 +19°C° 0 mm 3 mps 759 mmHg 75%
    17:00 +18°C° 0 mm 2 mps 759 mmHg 78%
    18:00 +18°C° 0 mm 2 mps 759 mmHg 80%
    19:00 +18°C° 0 mm 1 mps 759 mmHg 83%
    20:00 +16°C° 0 mm 1 mps 759 mmHg 87%
    21:00 +15°C° 0 mm 1 mps 760 mmHg 91%
    22:00 +14°C° 0 mm 1 mps 760 mmHg 95%
    23:00 +13°C° 0 mm 1 mps 760 mmHg 95%

    23 July, Tuesday

    Time Temperature Precipitation Wind Pressure Humidity
    00:00 +13°C° 0 mm 1 mps 760 mmHg 95%
    01:00 +12°C° 0 mm 0 mps 760 mmHg 95%
    02:00 +12°C° 0 mm 0 mps 760 mmHg 95%
    03:00 +12°C° 0 mm 0 mps 760 mmHg 94%
    04:00 +12°C° 0 mm 0 mps 760 mmHg 94%
    05:00 +14°C° 0 mm 0 mps 760 mmHg 86%
    06:00 +18°C° 0 mm 1 mps 760 mmHg 78%
    07:00 +20°C° 0 mm 1 mps 760 mmHg 70%
    08:00 +22°C° 0 mm 1 mps 760 mmHg 64%
    09:00 +24°C° 0 mm 1 mps 761 mmHg 57%
    10:00 +25°C° 0 mm 1 mps 761 mmHg 51%
    11:00 +26°C° 0 mm 2 mps 761 mmHg 50%
    12:00 +26°C° 0 mm 2 mps 761 mmHg 49%
    13:00 +27°C° 0 mm 2 mps 761 mmHg 48%
    14:00 +26°C° 0 mm 3 mps 761 mmHg 51%
    15:00 +25°C° 0 mm 3 mps 761 mmHg 55%
    16:00 +25°C° 0 mm 3 mps 761 mmHg 58%
    17:00 +23°C° 0 mm 2 mps 761 mmHg 66%
    18:00 +21°C° 0 mm 2 mps 760 mmHg 74%
    19:00 +19°C° 0 mm 2 mps 760 mmHg 82%
    20:00 +19°C° 0 mm 1 mps 761 mmHg 86%
    21:00 +16°C° 0 mm 1 mps 761 mmHg 91%
    22:00 +15°C° 0 mm 1 mps 761 mmHg 95%
    23:00 +15°C° 0 mm 1 mps 761 mmHg 95%

    24 July, Wednesday

    Time Temperature Precipitation Wind Pressure Humidity
    00:00 +15°C° 0 mm 1 mps 761 mmHg 95%
    01:00 +13°C° 0 mm 0 mps 761 mmHg 95%
    02:00 +14°C° 0 mm 1 mps 761 mmHg 95%
    03:00 +14°C° 0 mm 1 mps 761 mmHg 96%
    04:00 +14°C° 0 mm 1 mps 761 mmHg 96%
    05:00 +16°C° 0 mm 1 mps 761 mmHg 88%
    06:00 +19°C° 0 mm 1 mps 761 mmHg 81%
    07:00 +22°C° 0 mm 1 mps 761 mmHg 74%
    08:00 +23°C° 0 mm 1 mps 761 mmHg 67%
    09:00 +25°C° 0 mm 1 mps 761 mmHg 61%
    10:00 +26°C° 0 mm 1 mps 761 mmHg 55%
    11:00 +27°C° 0 mm 1 mps 761 mmHg 53%
    12:00 +28°C° 0 mm 1 mps 761 mmHg 50%
    13:00 +28°C° 0 mm 2 mps 761 mmHg 48%
    14:00 +28°C° 0 mm 2 mps 761 mmHg 51%
    15:00 +27°C° 0 mm 2 mps 761 mmHg 55%
    16:00 +26°C° 0 mm 3 mps 761 mmHg 58%
    17:00 +25°C° 0 mm 2 mps 761 mmHg 66%
    18:00 +23°C° 0 mm 2 mps 761 mmHg 74%
    19:00 +22°C° 0 mm 1 mps 761 mmHg 82%
    20:00 +20°C° 0 mm 1 mps 762 mmHg 86%
    21:00 +17°C° 0 mm 0 mps 762 mmHg 89%
    22:00 +16°C° 0 mm 0 mps 762 mmHg 93%
    23:00 +15°C° 0 mm 0 mps 762 mmHg 93%

    25 July, Thursday

    Time Temperature Precipitation Wind Pressure Humidity
    00:00 +15°C° 0 mm 0 mps 762 mmHg 92%
    01:00 +15°C° 0 mm 0 mps 762 mmHg 92%
    02:00 +16°C° 0 mm 1 mps 762 mmHg 92%
    03:00 +16°C° 0 mm 1 mps 762 mmHg 92%
    04:00 +16°C° 0 mm 1 mps 762 mmHg 92%
    05:00 +19°C° 0 mm 1 mps 763 mmHg 84%
    06:00 +21°C° 0 mm 1 mps 763 mmHg 76%
    07:00 +23°C° 0 mm 1 mps 763 mmHg 68%
    08:00 +25°C° 0 mm 1 mps 763 mmHg 62%
    09:00 +27°C° 0 mm 1 mps 763 mmHg 56%
    10:00 +28°C° 0 mm 1 mps 763 mmHg 50%
    11:00 +29°C° 0 mm 1 mps 763 mmHg 48%
    12:00 +30°C° 0 mm 1 mps 763 mmHg 46%
    13:00 +30°C° 0 mm 2 mps 763 mmHg 45%
    14:00 +30°C° 0 mm 2 mps 763 mmHg 48%
    15:00 +29°C° 0 mm 2 mps 763 mmHg 52%
    16:00 +28°C° 0 mm 2 mps 763 mmHg 55%
    17:00 +26°C° 0 mm 2 mps 763 mmHg 64%
    18:00 +25°C° 0 mm 1 mps 763 mmHg 72%
    19:00 +23°C° 0 mm 1 mps 763 mmHg 80%
    20:00 +21°C° 0 mm 1 mps 763 mmHg 84%
    21:00 +18°C° 0 mm 0 mps 763 mmHg 87%
    22:00 +17°C° 0 mm 0 mps 763 mmHg 91%
    23:00 +16°C° 0 mm 0 mps 763 mmHg 91%
    Show more